Regional Weather Roundup
Issued by NWS Cleveland, OH

Home | Current Version | Previous Version | Text Only | Print | Product List | Glossary Off
Versions: 1 2 3 4 5 6 7 8 9 10 11 12 13 14 15 16 17 18 19 20 21 22 23 24 25 26 27 28 29 30 31 32 33 34 35 36 37 38 39 40 41 42 43 44 45 46 47 48 49 50

000
ASUS41 KCLE 261010
RWRCLE
OHIO REGIONAL WEATHER ROUNDUP
NATIONAL WEATHER SERVICE WILMINGTON, OH
600 AM EDT MON JUN 26 2017

NOTE: "FAIR" INDICATES FEW OR NO CLOUDS BELOW 12,000 FEET WITH NO
SIGNIFICANT WEATHER AND/OR OBSTRUCTIONS TO VISIBILITY.

OHZ001>008-015>018-024>027-034-035-043-044-261100-
   NORTHWEST OHIO

CITY           SKY/WX    TMP DP  RH WIND       PRES   REMARKS
DEFIANCE       MOCLDY    56  51  84 SW3       30.07R
FINDLAY        FAIR      56  48  74 W9        30.07R
TOLEDO EXPRESS FAIR      55  51  86 W7        30.05R
TOLEDO EXEC    MOCLDY    58  52  80 W8        30.05R
LIMA           MOCLDY    55  50  83 W8        30.09R
$$

OHZ009>014-019>023-028>033-038-089-261100-
   NORTHEAST OHIO

CITY           SKY/WX    TMP DP  RH WIND       PRES   REMARKS
CLE-HOPKINS    FAIR      57  49  74 SW8       30.06R
CLE-LAKEFRONT  FAIR      60  47  61 SW12      30.03R
CUY CO. ARPT   NOT AVBL
LORAIN-ELYRIA  FAIR      54  45  71 SW7       30.05S
ASHTABULA      FAIR      54  51  90 CALM      30.05R
AKRON-CANTON   FAIR      55  45  68 SW6       30.06S
WOOSTER        FAIR      51  47  86 SW3       30.08R
MANSFIELD      FAIR      54  47  77 SW6       30.07S
YOUNGSTOWN     FAIR      51  47  86 S3        30.05S
$$

OHZ042-051>053-060>062-070>072-077>081-261100-
  SOUTHWEST OHIO

CITY           SKY/WX    TMP DP  RH WIND       PRES   REMARKS
CINC-COVINGTON FAIR      55  50  83 W8        30.14R
CINC-LUNKEN    FAIR      60  50  69 CALM      30.14R
HAMILTON       FAIR      53  51  93 CALM      30.15R
DAYTON         FAIR      55  49  80 W9        30.13R
WRIGHT-PAT AFB PTCLDY    53  50  87 S5        30.12R
DAYTON GENERAL FAIR      58  49  72 W5        30.12R
WILMINGTON     FAIR      57  51  80 W7        30.12R
$$

OHZ036-037-039>041-045>050-054>059-063>069-073>076-082>088-261100-
  CENTRAL AND SOUTHEAST OHIO

CITY           SKY/WX    TMP DP  RH WIND       PRES   REMARKS
COLUMBUS       FAIR      56  52  86 S3        30.09R
OSU AIRPORT    FAIR      54  49  83 W6        30.09R
BOLTON FIELD   NOT AVBL
RICKENBACK AFB FAIR      53  52  94 SW5       30.10R
NEWARK         FAIR      50  48  93 CALM      30.09R
MARION         FAIR      56  48  74 W7        30.09R
LANCASTER      FAIR      52  49  89 CALM      30.11R
ZANESVILLE     FAIR      51  48  89 CALM      30.10R
NEW PHILLY     FAIR      50  48  93 SE5       30.09R
$$




USA.gov is the U.S. government's official web portal to all federal, state and local government web resources and services.